Cosmos 2058 - Orbit

View from above orbital plane
View from above orbital plane
View from above satellite
View from above satellite

Ground track
Ground track

The orbit data is extracted from the following two-line orbital elements,

1 20465U 90010A   13137.75857496  .00001773  00000-0  16664-3 0  7838
2 20465 082.4940 237.9983 0015796 262.4750 097.4676 14.93290340262375
Epoch (UTC): 17 May 2013 18:12:20
Eccentricity: 0.0015796
inclination: 82.4940°
perigee height: 576 km
apogee height: 598 km
right ascension of ascending node: 237.9983°
argument of perigee: 262.4750°
revolutions per day: 14.93290340
mean anomaly at epoch: 97.4676°
orbit number at epoch: 26237

The dashed part of the orbit path shows where the satellite is in the earth's shadow,  

Developed and maintained by Chris Peat, Heavens-Above GmbH. Please read the updated FAQ before sending e-mail. Imprint. DLR